CHINASAT 16 (SJ-13)

Last updated on Mon Oct 27 2025 00:02:49 GMT+0000 (Coordinated Universal Time)

1 42662U 17018A 25299.42476293 -.00000340 00000+0 00000+0 0 9997 2 42662 0.0519 80.2711 0007622 155.6190 62.6041 1.00273501 31394
UTC large
Height (km)
Speed (km/s)
/
Latitude / Longitude
Inclination (degrees)
Orbital Period (minutes)
Azimuth
Elevation
Range (km)
Doppler Factor

Next 0 passes for location: London (51.5072 / 0.1276)

Sorry there are no passes over London.